User: anonymous   Login
Location: DARK SKY Beskydy - Park tmavé oblohy, www.darkskybeskydy.cz
(49.4926°N, 18.5016°E)
Time: 14:33:26
(UTC+02:00)
Language:

Explorer 11/Cluster Stage 4 - Orbit

View from above orbital plane
View from above orbital plane
View from above satellite
View from above satellite

Ground track
Ground track

The orbit data is extracted from the following two-line orbital elements,

1 00107U 61013A   24198.74350562  .00008295  00000-0  10519-2 0  9997
2 00107  28.7870  18.6315 0519961  93.3679 272.6486 14.15628561176888
Epoch (UTC): 16 July 2024 17:50:38
Eccentricity: 0.0519961
inclination: 28.7870°
perigee height: 465 km
apogee height: 1215 km
right ascension of ascending node: 18.6315°
argument of perigee: 93.3679°
revolutions per day: 14.15628561
mean anomaly at epoch: 272.6486°
orbit number at epoch: 17688

The dashed part of the orbit path shows where the satellite is in the earth's shadow,  

DLR